Temperature
13 13 13 12 12 12 12 12 12 12 12 12 11 11 11 11 11 11 11 11 11 11 11 11 11 11 11 11 11 11 11 11 11 11 11 11 10 11 11 10 11 11 11
12 12 12 12 12 12 12 12 12 11 11 11 11 11 11 11 11 10 10 10 10 10 10 10 10 10 10 10 10 10 11 11 11 10 10 10 10 10 10 10 10 10 10
12 12 12 12 12 11 11 11 11 11 11 11 11 11 10 10 10 10 10 10 10 10 10 10 10 10 10 10 10 10 10 10 10 10 10 10 10 10 10 10 9 9 10
11 11 11 11 11 11 11 11 11 11 10 10 10 10 10 10 10 10 9 9 9 9 9 9 9 9 9 9 9 10 10 10 10 10 9 9 9 9 9 9 9 9 9
11 11 11 11 10 10 10 10 10 10 10 10 10 9 9 9 9 9 9 9 9 9 9 9 9 9 9 9 9 9 9 9 9 9 9 9 9 9 9 8 8 9 9
10 10 10 10 10 10 10 10 10 10 9 9 9 9 9 9 9 9 9 8 8 8 8 8 8 8 8 8 9 9 9 9 9 9 9 8 8 8 8 8 8 8 8
9 9 9 9 9 9 9 9 9 9 9 9 9 8 8 9 8 8 8 8 8 8 8 8 8 8 8 8 8 8 8 8 8 8 8 8 8 8 8 8 8 8 8
9 9 9 9 9 8 8 9 9 9 8 8 8 8 8 8 8 8 8 8 7 7 7 7 7 7 7 7 8 8 8 8 8 8 8 8 8 8 8 8 7 7 7
8 8 8 8 8 8 8 8 8 8 8 8 8 8 8 7 7 7 7 7 7 7 7 7 7 7 7 7 7 7 7 7 7 7 8 8 7 7 7 7 7 7 7
8 7 8 8 7 7 8 7 7 7 7 7 7 7 7 7 7 7 7 7 6 6 6 6 6 6 6 6 6 7 7 7 7 7 7 7 7 7 7 7 7 6 6
7 7 7 7 7 7 7 7 7 7 6 6 6 6 6 6 6 6 6 6 6 6 5 5 6 6 6 6 6 6 6 7 7 6 7 7 7 7 7 6 6 6 6
7 7 7 7 7 6 6 6 6 6 6 6 6 5 5 5 5 6 6 6 5 5 5 5 5 5 5 5 6 6 6 6 6 6 6 6 6 6 6 6 6 6 6
6 6 6 6 6 6 6 6 6 6 5 5 5 5 5 5 5 5 5 5 5 5 5 5 5 5 5 5 5 5 5 5 5 5 5 6 6 6 6 6 6 6 6
6 6 6 6 6 6 5 5 5 5 5 5 5 4 4 4 5 5 5 5 4 4 4 4 4 4 4 4 4 4 4 5 5 5 5 5 5 5 5 5 5 5 5
5 5 5 5 5 5 5 5 5 5 4 4 4 4 4 4 4 4 4 4 4 4 4 4 4 3 3 4 4 4 4 4 4 4 4 5 5 5 5 5 5 5 4
5 5 5 5 5 4 4 4 4 4 4 4 4 4 4 4 4 3 3 4 3 3 3 3 3 3 3 3 3 3 3 3 3 3 4 4 4 4 4 4 4 4 4
5 4 4 4 4 4 4 4 4 4 4 3 3 3 3 3 3 3 3 3 3 3 3 2 2 2 2 2 2 2 2 2 3 3 3 3 3 4 4 3 3 3 3
4 4 4 4 4 4 3 3 3 3 3 3 3 3 3 3 3 3 2 2 2 2 2 2 2 1 1 1 2 2 2 2 2 2 2 3 3 3 3 3 3 3 3
4 4 4 4 3 3 3 3 3 2 2 2 2 2 2 2 2 2 2 2 2 1 1 1 1 1 1 1 1 1 1 1 2 2 2 2 2 2 2 2 2 2 2
4 3 3 3 3 3 3 2 2 2 2 2 2 2 2 2 2 1 1 1 1 1 1 1 1 0 0 1 1 1 1 1 1 1 1 2 2 2 2 2 2 2 2
3 3 3 3 2 2 2 2 2 1 1 1 1 1 1 1 1 1 0 0 0 0 0 0 0 0 0 0 0 0 1 1 1 1 1 1 1 1 1 1 1 1 1
2 2 2 2 2 2 1 1 1 1 1 1 1 1 1 0 0 -0 -0 -0 -0 -0 -0 -0 -0 -0 -0 -0 -0 -0 0 0 0 1 1 1 1 1 1 1 1 1 1
2 2 2 2 1 1 1 1 1 1 0 0 0 0 0 -0 -0 -0 -1 -1 -1 -1 -1 -1 -1 -1 -1 -1 -1 -1 -0 -0 -0 0 0 0 0 0 0 0 0 0 0
2 2 1 1 1 1 1 1 0 0 0 0 -0 -0 -0 -0 -1 -1 -1 -1 -1 -1 -1 -1 -1 -1 -1 -1 -1 -1 -1 -1 -1 -0 -0 -0 -0 -0 -0 -0 -0 -0 -0
1 1 1 1 1 0 0 0 -0 -0 -0 -0 -0 -0 -1 -1 -1 -1 -1 -1 -1 -1 -2 -2 -2 -2 -2 -2 -2 -1 -1 -1 -1 -1 -1 -1 -1 -1 -1 -1 -1 -1 -1
1 1 1 0 0 -0 -0 -0 -0 -1 -1 -1 -1 -1 -1 -1 -1 -1 -1 -2 -2 -2 -2 -2 -2 -2 -2 -2 -2 -2 -2 -2 -1 -1 -1 -1 -1 -1 -1 -1 -1 -1 -1
Wind_Speed
1 1 1 1 1 1 1 1 1 1 1 1 1 2 3 2 2 2 2 2 2 2 2 2 3 2 2 2 1 1 1 1 0 1 1 1 2 1 1 1 2 3 2
0 1 1 1 1 1 0 0 0 1 1 1 2 2 2 2 2 2 2 2 1 2 2 2 2 2 2 2 1 1 1 0 1 0 1 1 1 0 0 0 1 1 2
1 0 1 1 1 1 0 0 0 0 1 2 2 2 2 2 2 1 1 1 1 1 2 2 1 2 2 2 2 1 1 1 0 1 1 0 0 0 0 1 1 1 0
1 0 0 0 1 1 0 0 0 0 1 1 1 2 2 2 2 2 2 2 1 1 2 2 2 2 2 3 2 1 1 1 1 0 0 0 0 0 1 0 1 1 1
1 1 1 1 1 1 0 1 1 1 0 1 1 1 1 1 2 2 2 2 2 1 1 2 2 3 3 3 2 2 1 0 1 0 0 0 0 0 0 1 1 1 1
1 1 1 1 1 1 0 0 1 1 1 1 1 1 1 2 3 5 4 2 1 1 1 1 1 3 4 4 5 3 1 0 1 1 1 1 1 1 1 0 0 1 2
2 1 1 1 2 2 0 1 0 0 1 1 1 1 1 1 2 4 4 2 1 0 1 1 2 3 4 3 3 4 2 1 1 2 2 2 2 2 2 1 1 1 2
3 2 2 1 1 2 0 1 1 1 1 1 1 1 1 1 2 3 4 2 1 1 0 1 1 2 3 3 3 3 3 2 3 2 3 4 3 2 3 3 3 2 1
3 3 2 2 1 1 1 1 1 1 1 1 1 1 1 1 2 2 3 1 1 2 1 1 1 1 4 5 3 3 3 3 3 3 3 2 2 2 2 1 1 1 1
3 3 2 2 2 1 1 0 1 1 0 1 1 1 1 1 2 3 3 1 1 1 1 2 2 3 4 6 3 3 3 3 2 2 2 2 1 1 1 2 3 2 1
3 3 3 2 2 1 0 1 1 1 1 1 1 1 1 1 1 2 3 1 1 1 1 1 1 3 4 5 5 3 4 3 2 2 2 1 1 1 1 1 1 2 1
3 3 2 2 2 2 2 2 2 1 1 0 1 1 1 1 2 2 3 4 4 1 1 1 1 2 3 4 4 5 6 4 1 1 1 1 1 1 1 1 1 2 2
2 2 2 2 2 2 2 2 2 1 1 0 0 1 1 1 1 3 3 3 5 3 2 3 3 3 3 3 4 5 5 3 1 1 1 1 1 1 1 1 1 2 2
2 2 2 2 2 2 2 2 2 1 1 1 1 1 1 1 2 1 1 1 3 3 2 3 3 3 2 3 3 3 2 2 1 1 2 2 1 1 0 0 1 1 1
1 2 1 1 1 2 2 2 2 2 2 1 0 1 1 1 2 3 2 1 1 1 2 2 2 1 2 2 2 2 2 2 2 2 1 1 1 1 1 1 1 1 1
1 2 1 1 1 1 2 2 3 3 4 4 3 2 2 3 4 3 3 3 3 2 2 1 1 1 1 1 2 3 2 2 2 1 1 1 1 1 1 1 1 0 0
2 2 1 1 1 1 1 1 1 2 3 3 3 4 4 4 4 4 4 4 4 3 2 1 1 1 1 1 2 2 2 3 2 2 1 1 1 1 1 1 1 1 1
2 2 1 1 1 1 0 0 1 1 1 1 2 3 4 4 4 4 4 4 3 3 2 1 1 2 2 2 2 3 2 2 2 2 2 1 1 1 1 2 1 1 1
2 1 1 1 1 1 1 1 1 1 2 1 2 2 4 3 3 4 4 2 1 1 2 2 2 2 2 2 2 3 2 2 2 2 2 2 1 1 2 2 2 2 2
1 3 2 1 1 1 1 1 1 1 1 1 1 2 2 2 2 2 2 2 2 1 1 1 2 2 2 2 2 3 3 2 2 2 2 2 2 1 2 2 2 2 2
1 1 2 1 1 1 1 1 1 1 1 1 1 2 3 1 1 1 2 2 2 2 2 2 2 2 2 2 2 3 3 2 2 2 2 3 3 2 2 2 2 2 2
1 1 1 1 1 1 1 1 0 1 1 2 1 2 3 2 1 2 2 2 2 2 3 3 2 2 2 2 3 3 3 3 3 3 3 3 2 3 2 2 2 2 2
1 1 1 1 1 2 1 1 1 1 1 1 1 2 1 1 2 2 2 2 2 2 3 3 3 3 3 3 3 3 3 3 4 4 3 3 3 3 3 3 3 3 3
1 1 1 1 1 1 1 1 2 1 1 1 2 2 2 2 2 2 2 2 3 3 4 4 3 3 5 4 4 4 5 5 6 5 5 4 3 3 3 3 3 4 3
1 1 1 1 1 1 1 1 2 2 2 2 2 2 2 2 2 2 2 2 3 3 4 5 5 5 5 6 5 5 7 8 8 7 5 3 3 3 3 3 4 4 4
1 1 1 1 1 1 1 1 2 2 2 2 2 2 1 1 1 1 2 2 2 3 3 4 5 6 6 6 7 7 8 8 9 9 7 3 2 2 3 3 4 4 4
Wind_Direction
49 32 48 41 345 249 131 81 55 42 70 64 38 45 47 39 42 41 22 21 37 15 13 22 10 7 7 355 16 29 27 71 122 305 18 41 50 71 68 85 124 141 148
352 10 43 36 335 287 125 110 76 34 38 50 46 44 44 39 48 43 3 358 34 31 23 25 4 5 8 357 12 14 348 29 147 204 313 35 52 117 97 17 117 130 150
334 348 29 11 334 271 215 61 84 68 38 41 37 42 37 26 25 22 13 351 24 43 42 38 15 16 7 356 350 7 346 349 89 154 242 242 71 128 113 319 21 68 65
354 10 359 342 326 315 182 101 206 72 74 64 42 42 32 20 21 15 3 351 3 25 38 28 31 47 20 359 351 1 25 6 350 92 79 53 136 21 76 319 342 356 349
3 21 348 334 325 333 8 32 41 53 35 76 73 34 29 22 12 14 5 354 3 4 28 34 44 54 33 14 358 350 11 2 352 5 166 16 49 91 264 282 310 311 300
6 340 353 355 353 346 286 85 33 43 46 54 57 58 50 18 14 13 3 334 340 30 42 38 42 54 45 25 13 5 3 341 230 230 246 238 228 205 217 279 345 10 305
338 342 355 10 356 315 246 130 128 95 83 86 68 77 72 47 33 18 1 342 328 327 28 18 7 31 28 3 349 347 333 326 256 221 220 236 227 200 178 214 229 228 260
341 345 341 346 335 318 22 138 136 85 92 108 103 96 87 29 16 20 6 357 347 355 3 61 48 20 3 4 353 345 317 282 255 233 217 226 232 213 194 207 222 239 271
343 340 355 348 321 315 292 195 143 102 82 88 99 103 95 16 358 10 19 11 24 358 354 34 59 23 3 5 357 335 318 299 274 246 245 249 256 254 211 156 187 172 299
339 343 354 345 316 312 284 242 79 93 98 95 103 115 105 66 13 13 18 25 33 356 1 24 25 3 0 0 340 319 300 291 303 305 290 288 266 275 217 174 187 187 239
353 3 4 359 356 356 104 71 66 65 65 48 72 54 52 52 38 14 19 6 326 306 338 11 340 351 356 354 349 330 315 310 266 262 245 238 218 192 163 184 189 181 211
5 4 4 7 6 32 82 90 82 75 96 70 45 22 17 25 37 7 14 2 359 5 346 356 337 358 350 347 348 342 347 349 322 287 256 235 222 222 222 216 253 264 265
12 5 8 11 22 46 86 95 97 87 87 9 24 14 356 8 22 15 4 359 2 10 16 13 9 11 355 335 335 344 352 349 328 317 282 263 241 227 222 240 277 275 292
8 3 16 25 25 30 68 96 96 92 93 60 6 329 336 4 24 24 354 340 358 359 2 6 23 20 357 341 343 329 321 329 326 274 272 279 291 290 285 252 273 305 323
3 358 10 31 43 36 54 67 87 88 93 87 323 341 351 333 340 8 18 347 316 325 10 20 20 11 353 347 346 337 328 331 324 302 294 316 318 287 281 278 256 274 286
356 357 11 61 58 59 67 53 53 69 68 56 49 47 25 12 4 19 14 9 20 45 55 34 9 354 346 341 337 328 325 323 316 293 280 298 306 300 303 296 264 222 241
0 355 11 64 73 62 71 89 52 34 57 50 36 40 36 29 28 31 37 38 41 61 63 44 3 350 347 341 332 327 325 320 324 330 320 314 317 316 317 307 294 284 262
358 2 16 52 79 87 90 96 109 98 64 23 12 29 31 26 32 37 43 56 44 44 45 35 10 358 357 350 340 332 328 334 341 345 351 338 323 327 322 308 295 287 291
0 7 30 45 63 90 72 74 82 81 78 60 55 35 28 24 39 45 53 52 58 35 18 1 348 355 353 342 334 332 337 342 341 344 341 329 314 310 306 298 297 304 311
39 31 32 38 43 48 60 74 83 94 99 84 76 64 43 42 45 39 28 22 26 18 356 338 340 352 348 338 336 339 341 344 342 341 335 325 319 301 288 290 292 294 291
48 51 53 51 51 52 37 58 77 96 97 85 79 77 64 74 58 44 27 13 9 3 360 357 358 357 359 357 350 343 345 350 346 336 332 330 330 319 305 295 293 288 289
48 71 74 61 43 38 19 15 60 94 91 77 71 79 69 62 48 45 35 17 10 7 6 10 7 4 10 8 355 347 349 349 342 334 326 323 323 317 307 300 302 303 297
34 57 79 69 61 37 24 30 52 68 79 71 80 89 87 62 53 40 25 17 10 11 11 11 8 4 4 2 355 353 347 342 335 331 328 324 321 314 311 302 295 295 290
38 56 74 71 59 47 35 27 33 47 66 63 66 80 76 60 47 33 22 19 16 14 9 5 360 356 356 357 352 349 345 339 337 335 326 318 316 316 315 313 306 297 292
44 62 56 70 59 45 46 33 34 38 36 34 54 73 72 58 42 29 19 20 18 9 2 357 352 350 351 349 346 344 343 344 342 337 328 320 313 310 310 307 304 303 300
97 82 48 56 69 58 51 40 37 40 37 29 41 62 65 55 38 27 22 19 9 358 350 344 344 343 341 339 341 345 347 347 345 341 337 324 319 314 310 300 300 301 302
Height
1517 1518 1518 1518 1518 1518 1518 1519 1519 1520 1520 1520 1520 1520 1519 1519 1519 1518 1517 1517 1517 1517 1517 1517 1517 1517 1517 1518 1518 1519 1519 1519 1518 1518 1519 1519 1518 1518 1518 1518 1517 1517 1517
1515 1515 1515 1515 1516 1515 1515 1516 1517 1518 1518 1518 1518 1518 1517 1517 1516 1516 1515 1515 1515 1515 1515 1515 1515 1515 1515 1515 1516 1516 1516 1517 1517 1516 1516 1516 1516 1516 1516 1516 1515 1515 1516
1513 1513 1513 1513 1513 1513 1514 1514 1515 1515 1515 1515 1515 1515 1515 1515 1514 1514 1513 1513 1513 1513 1513 1513 1513 1513 1512 1513 1513 1514 1514 1514 1514 1514 1514 1514 1514 1514 1514 1514 1514 1514 1514
1511 1511 1511 1511 1510 1510 1511 1511 1512 1512 1512 1512 1513 1513 1513 1512 1512 1512 1511 1511 1511 1511 1511 1511 1511 1510 1510 1510 1510 1511 1511 1511 1512 1512 1512 1512 1512 1512 1512 1512 1511 1512 1512
1509 1508 1508 1508 1508 1508 1508 1509 1509 1509 1510 1510 1510 1510 1510 1510 1509 1509 1509 1509 1508 1508 1508 1508 1508 1508 1508 1508 1508 1508 1509 1509 1509 1509 1509 1509 1509 1509 1509 1510 1509 1509 1509
1506 1506 1506 1506 1506 1505 1505 1506 1506 1506 1507 1507 1507 1507 1507 1507 1507 1507 1506 1506 1506 1506 1505 1505 1505 1505 1505 1505 1505 1505 1506 1507 1507 1507 1507 1507 1507 1507 1508 1508 1507 1507 1507
1505 1504 1503 1503 1503 1503 1503 1503 1503 1503 1504 1504 1504 1504 1504 1504 1503 1503 1504 1503 1503 1503 1503 1503 1503 1503 1502 1502 1502 1502 1503 1503 1504 1505 1504 1504 1504 1505 1505 1505 1505 1505 1505
1502 1502 1501 1501 1500 1500 1501 1500 1500 1501 1501 1501 1501 1501 1501 1501 1501 1501 1501 1500 1500 1500 1500 1500 1500 1499 1500 1500 1499 1499 1499 1500 1501 1501 1502 1502 1502 1502 1503 1503 1503 1503 1503
1500 1500 1499 1498 1498 1498 1498 1498 1498 1498 1498 1498 1498 1498 1498 1498 1498 1498 1498 1497 1497 1497 1497 1498 1497 1497 1497 1497 1496 1496 1496 1496 1497 1498 1498 1499 1499 1500 1500 1500 1500 1500 1500
1498 1497 1496 1496 1496 1496 1496 1496 1496 1496 1495 1495 1495 1495 1495 1495 1495 1495 1495 1494 1494 1494 1494 1495 1495 1495 1494 1494 1493 1493 1492 1493 1493 1494 1495 1495 1496 1496 1497 1497 1497 1497 1497
1496 1495 1494 1493 1493 1493 1493 1494 1494 1493 1493 1493 1493 1493 1493 1493 1493 1493 1492 1492 1492 1492 1492 1492 1492 1492 1491 1491 1491 1490 1490 1490 1490 1491 1491 1492 1493 1493 1494 1494 1495 1495 1495
1494 1493 1492 1491 1491 1491 1491 1491 1491 1491 1491 1490 1490 1490 1490 1490 1490 1490 1490 1490 1490 1489 1489 1489 1489 1489 1489 1488 1488 1487 1487 1487 1487 1488 1488 1489 1490 1490 1491 1492 1492 1493 1493
1492 1491 1490 1489 1489 1489 1489 1489 1488 1489 1488 1488 1488 1487 1487 1487 1487 1487 1487 1487 1487 1487 1487 1487 1487 1486 1486 1485 1485 1485 1484 1484 1484 1485 1485 1486 1487 1488 1488 1489 1490 1490 1490
1489 1489 1488 1488 1487 1487 1487 1487 1487 1486 1486 1486 1485 1485 1485 1485 1485 1484 1484 1484 1484 1484 1484 1484 1484 1484 1484 1483 1483 1482 1482 1482 1482 1482 1483 1483 1484 1485 1485 1486 1486 1487 1487
1488 1487 1486 1486 1486 1486 1485 1485 1485 1485 1485 1485 1484 1484 1483 1482 1483 1483 1482 1481 1481 1482 1482 1481 1481 1481 1481 1481 1480 1480 1479 1479 1479 1480 1480 1480 1481 1481 1482 1483 1483 1484 1483
1486 1485 1485 1485 1484 1484 1483 1484 1484 1484 1485 1484 1484 1483 1482 1482 1481 1481 1480 1480 1480 1480 1480 1479 1479 1479 1479 1479 1478 1478 1477 1477 1477 1477 1477 1477 1478 1478 1479 1480 1480 1481 1480
1485 1484 1483 1483 1483 1482 1482 1482 1482 1483 1483 1483 1483 1482 1482 1481 1480 1479 1479 1478 1478 1478 1478 1477 1477 1477 1477 1477 1477 1476 1476 1475 1475 1475 1475 1475 1475 1476 1476 1477 1477 1477 1477
1483 1483 1482 1481 1481 1481 1481 1481 1481 1481 1481 1481 1481 1481 1480 1479 1479 1478 1477 1477 1476 1476 1476 1476 1476 1476 1476 1476 1475 1474 1474 1473 1473 1472 1472 1472 1473 1473 1473 1474 1474 1474 1474
1481 1481 1480 1480 1480 1480 1480 1480 1480 1480 1480 1480 1479 1479 1479 1478 1477 1477 1476 1475 1475 1475 1475 1475 1475 1475 1475 1474 1473 1473 1472 1471 1471 1471 1471 1470 1470 1470 1470 1471 1471 1471 1471
1480 1479 1479 1479 1479 1479 1479 1478 1478 1478 1478 1478 1478 1478 1477 1476 1475 1475 1475 1475 1474 1474 1474 1474 1473 1473 1473 1473 1472 1471 1470 1469 1469 1469 1469 1469 1468 1468 1468 1468 1468 1468 1468
1478 1478 1478 1478 1478 1477 1477 1477 1477 1477 1477 1477 1477 1477 1477 1476 1475 1475 1475 1474 1473 1473 1472 1472 1472 1472 1471 1471 1470 1469 1468 1467 1467 1467 1466 1466 1466 1465 1465 1465 1464 1465 1464
1477 1477 1477 1477 1477 1477 1477 1476 1477 1476 1476 1476 1476 1476 1476 1475 1475 1474 1474 1473 1473 1472 1471 1471 1470 1470 1469 1469 1468 1467 1466 1465 1465 1464 1464 1463 1463 1462 1462 1461 1461 1461 1461
1476 1476 1476 1476 1476 1476 1476 1476 1476 1476 1475 1475 1475 1474 1474 1474 1473 1473 1473 1472 1471 1471 1470 1469 1469 1468 1467 1467 1466 1465 1464 1463 1462 1462 1461 1460 1459 1459 1458 1458 1457 1457 1457
1475 1475 1474 1474 1474 1474 1474 1474 1475 1475 1474 1474 1474 1473 1473 1473 1472 1472 1472 1471 1470 1469 1469 1468 1467 1466 1465 1464 1463 1462 1461 1460 1460 1459 1458 1457 1456 1455 1455 1454 1453 1453 1453
1473 1473 1473 1473 1473 1473 1473 1473 1473 1473 1473 1473 1472 1472 1472 1471 1471 1471 1470 1469 1469 1468 1467 1466 1465 1463 1462 1462 1461 1459 1458 1457 1456 1455 1454 1453 1453 1452 1451 1451 1450 1450 1449
1471 1472 1472 1472 1472 1472 1472 1472 1472 1472 1471 1471 1471 1470 1470 1470 1469 1469 1468 1468 1467 1466 1465 1464 1463 1462 1460 1459 1458 1457 1455 1454 1453 1452 1451 1450 1449 1448 1448 1447 1446 1446 1446